Flag for Ukraine Weather past 2 weeks in Luhansk, Ukraine

Now
73 °F

Clear.


Feels Like: 77 °F
Forecast: 65 / 88 °F
Wind: 10 mph from Northeast

Location: Rostov-Na-Donu

Current Time: Jul 26, 2014 at 1:21:33 AM

Latest Report: Jul 26, 2014 at 1:00 AM


Visibility: 10 mi

Pressure: 29.89 "Hg

Humidity: 44%

Dew point: 50 °F

Location of LuhanskLocation

Historic Weather in Luhansk — Graph

°F

Luhansk temperature yesterday

Maximum temperature yesterday: 91 °F (at 1:30 PM)
Minimum temperature yesterday: 72 °F (at 5:30 AM)
Average temperature yesterday: 81 °F

Past Weeks' High & Low Weather Summary

 TemperatureHumidityPressure
High95 °F (Jul 12, 1:00 PM)88% (Jul 22, 7:30 AM)30.01 "Hg (Jul 22, 7:30 AM)
Low61 °F (Jul 21, 2:30 AM)18% (Jul 14, 2:30 PM)29.71 "Hg (Jul 17, 11:30 PM)
Average78 °F42%29.83 "Hg
* Reported Midnight between Jul 10 and Jul 11 — Midnight between Jul 25 and Jul 26, Luhansk, Weather by CustomWeather, © 2014

Note: Actual official high and low records may vary slightly from our data, if they occured in-between our weather recording intervals... More about our weather records

Advertising

Luhansk weather history for previous 24 hours

 ConditionsComfort  
Time TempWeatherWind HumidityBarometerVisibility
12:00 AM
Jul 26
75 °FClear.10 mph44%29.89 "Hg10 mi
11:30 PM
Jul 25
79 °FClear.10 mph39%29.89 "Hg10 mi
11:00 PM79 °FClear.13 mph39%29.86 "Hg10 mi
10:30 PM79 °FClear.10 mph39%29.86 "Hg10 mi
10:00 PM81 °FClear.10 mph34%29.86 "Hg10 mi
9:30 PM75 °FClear.8 mph44%29.86 "Hg10 mi
9:00 PM75 °FSunny.8 mph44%29.86 "Hg10 mi
8:30 PM77 °FSunny.8 mph42%29.86 "Hg10 mi
8:00 PM81 °FSunny.6 mph34%29.83 "Hg10 mi
7:30 PM82 °FSunny.6 mph32%29.83 "Hg10 mi
7:00 PM82 °FSunny.6 mph37%29.83 "Hg10 mi
6:30 PM86 °FSunny.6 mph33%29.83 "Hg10 mi
6:00 PM86 °FSunny.6 mph31%29.83 "Hg10 mi
5:30 PM90 °FSunny.8 mph24%29.83 "Hg10 mi
5:00 PM91 °FSunny.10 mph23%29.80 "Hg10 mi
4:30 PM91 °FSunny.8 mph21%29.83 "Hg10 mi
4:00 PM90 °FPassing clouds.8 mph26%29.83 "HgN/A
3:30 PM90 °FSunny.8 mph24%29.83 "Hg10 mi
3:00 PM90 °FSunny.13 mph24%29.83 "Hg10 mi
2:30 PM91 °FPartly sunny.10 mph24%29.83 "HgN/A
2:00 PM91 °FPartly sunny.13 mph23%29.83 "HgN/A
1:30 PM91 °FPartly sunny.15 mph24%29.83 "HgN/A
1:00 PM90 °FPartly sunny.17 mph24%29.83 "HgN/A
12:30 PM90 °FPartly sunny.20 mph24%29.83 "HgN/A
12:00 PM88 °FPartly sunny.20 mph27%29.83 "HgN/A
11:30 AM88 °FPartly sunny.20 mph27%29.80 "HgN/A
11:00 AM86 °FPartly sunny.22 mph29%29.80 "HgN/A
10:30 AM86 °FPartly sunny.20 mph31%29.80 "HgN/A
10:00 AM84 °FPartly sunny.20 mph33%29.80 "HgN/A
9:30 AM82 °FPartly sunny.20 mph40%29.83 "HgN/A
9:00 AM81 °FPartly sunny.20 mph42%29.80 "HgN/A
8:30 AM79 °FPartly sunny.20 mph48%29.80 "HgN/A
8:00 AM77 °FSunny.17 mph51%29.80 "Hg10 mi
7:30 AM75 °FSunny.17 mph50%29.80 "Hg10 mi
7:00 AM73 °FSunny.17 mph50%29.80 "Hg10 mi
6:30 AM73 °FSunny.17 mph47%29.80 "Hg10 mi
5:30 AM72 °FClear.20 mph47%29.77 "Hg10 mi
5:00 AM73 °FClear.20 mph41%29.77 "Hg10 mi
4:30 AM73 °FClear.20 mph41%29.77 "Hg10 mi
4:00 AM73 °FClear.20 mph41%29.77 "Hg10 mi
3:30 AM73 °FClear.17 mph41%29.77 "Hg10 mi
3:00 AM75 °FClear.17 mph39%29.77 "Hg10 mi
2:30 AM75 °FClear.17 mph36%29.77 "Hg10 mi
2:00 AM77 °FClear.17 mph34%29.77 "Hg10 mi
1:30 AM77 °FClear.20 mph34%29.77 "Hg10 mi
1:00 AM77 °FClear.20 mph34%29.77 "Hg10 mi
Weather by CustomWeather, © 2014

See weather overviewHow to use our weather pages